Location: Lafig�re
(44.4503°N, 4.0357°E)
Time: 08:25:25
(UTC+00:00)

deb Explorer IX - Pass Details

Date: 30 January 2021
Orbit: 537 x 1103 km, 38.8° (Epoch: 23 February)

Event Time Altitude Azimuth Distance (km) Brightness Sun altitude
Rises 17:29:16 0° 264° (W) 3,841 ? -7.3°
Reaches altitude 10° 17:32:11 10° 260° (W) 2,833 ? -7.8°
Maximum altitude 17:38:48 51° 187° (S) 1,174 ? -8.9°
Drops below altitude 10° 17:44:34 10° 113° (ESE) 2,474 ? -9.9°
Enters shadow 17:45:23 - 111° (ESE) 2,759 ? -10.1°
